Location: Cazavet
(43.0017°N, 1.0431°E)
Time: 20:41:57
(UTC+00:00)

Meteor 2-10 Rocket - Pass Details

Date: 18 January 2026
Orbit: 733 x 881 km, 81.2° (Epoch: 10 February)

Event Time Altitude Azimuth Distance (km) Brightness Sun altitude
Rises 05:50:39 0° 211° (SSW) 3,175 6.5 -16.6°
Reaches altitude 10° 05:53:06 10° 219° (SW) 2,270 5.7 -16.2°
Maximum altitude 05:57:49 38° 287° (WNW) 1,172 3.9 -15.3°
Drops below altitude 10° 06:02:45 10° 355° (N) 2,365 5.8 -14.4°
Sets 06:05:21 0° 4° (N) 3,324 6.7 -14.0°
